owner,sensor,date,latitude,longitude,vertical_datum,direction_of_sea_water_velocity,sea_water_speed,upward_sea_water_velocity,qcFlag 
TABS,ioos:station:wmo:42047:1,2005-04-01T00:00:00Z,27.8966,-93.5973,2.0,146.5140139,23.34470604,-99999.0,'11111222,11111222,99999999' 
TABS,ioos:station:wmo:42047:1,2005-04-01T00:30:00Z,27.8966,-93.5973,2.0,147.9944812,23.67929264,-99999.0,'11111222,11111222,99999999' 
TABS,ioos:station:wmo:42047:1,2005-04-01T01:00:00Z,27.8966,-93.5973,2.0,150.2617963,20.84527764,-99999.0,'11111222,11111222,99999999' 
TABS,ioos:station:wmo:42047:1,2005-04-01T01:30:00Z,27.8966,-93.5973,2.0,153.1580121,18.5148589,-99999.0,'11111222,11111222,99999999' 
TABS,ioos:station:wmo:42047:1,2005-04-01T02:00:00Z,27.8966,-93.5973,2.0,159.9985963,16.19691329,-99999.0,'11111222,11111222,99999999' 
TABS,ioos:station:wmo:42047:1,2005-04-01T02:30:00Z,27.8966,-93.5973,2.0,150.7854779,13.93217858,-99999.0,'11111222,11111222,99999999' 
TABS,ioos:station:wmo:42047:1,2005-04-01T03:00:00Z,27.8966,-93.5973,2.0,151.0983987,11.62827588,-99999.0,'11111222,11111222,99999999' 
TABS,ioos:station:wmo:42047:1,2005-04-01T03:30:00Z,27.8966,-93.5973,2.0,149.5232378,7.866924431,-99999.0,'11133222,11111222,99999999' 
TABS,ioos:station:wmo:42047:1,2005-04-01T04:00:00Z,27.8966,-93.5973,2.0,139.0534395,6.301944144,-99999.0,'11133222,11111222,99999999' 
TABS,ioos:station:wmo:42047:1,2005-04-01T04:30:00Z,27.8966,-93.5973,2.0,125.3385303,5.688031294,-99999.0,'11133222,11111222,99999999' 
TABS,ioos:station:wmo:42047:1,2005-04-01T05:00:00Z,27.8966,-93.5973,2.0,117.8240313,6.105939731,-99999.0,'11133222,11111222,99999999' 
TABS,ioos:station:wmo:42047:1,2005-04-01T05:30:00Z,27.8966,-93.5973,2.0,125.2877461,6.664540494,-99999.0,'11133222,11111222,99999999' 
TABS,ioos:station:wmo:42047:1,2005-04-01T06:00:00Z,27.8966,-93.5973,2.0,92.93794537,6.438462549,-99999.0,'11133222,11111222,99999999' 
TABS,ioos:station:wmo:42047:1,2005-04-01T06:30:00Z,27.8966,-93.5973,2.0,71.25634476,8.215716646,-99999.0,'11133222,11111222,99999999' 
TABS,ioos:station:wmo:42047:1,2005-04-01T07:00:00Z,27.8966,-93.5973,2.0,66.61642266,8.944640854,-99999.0,'11133222,11111222,99999999' 
TABS,ioos:station:wmo:42047:1,2005-04-01T07:30:00Z,27.8966,-93.5973,2.0,3.977222535,10.5253456,-99999.0,'11111222,11111222,99999999' 
TABS,ioos:station:wmo:42047:1,2005-04-01T08:00:00Z,27.8966,-93.5973,2.0,22.9021035,17.49944285,-99999.0,'11111222,11111222,99999999' 
TABS,ioos:station:wmo:42047:1,2005-04-01T08:30:00Z,27.8966,-93.5973,2.0,19.10106481,16.86872846,-99999.0,'11111222,11111222,99999999' 
TABS,ioos:station:wmo:42047:1,2005-04-01T09:00:00Z,27.8966,-93.5973,2.0,26.44754948,17.42347841,-99999.0,'11111222,11111222,99999999' 
TABS,ioos:station:wmo:42047:1,2005-04-01T09:30:00Z,27.8966,-93.5973,2.0,49.29506228,17.37290419,-99999.0,'11111222,11111222,99999999' 
TABS,ioos:station:wmo:42047:1,2005-04-01T10:00:00Z,27.8966,-93.5973,2.0,60.01937607,20.19178546,-99999.0,'11111222,11111222,99999999' 
TABS,ioos:station:wmo:42047:1,2005-04-01T10:30:00Z,27.8966,-93.5973,2.0,66.20830852,17.37671143,-99999.0,'11111222,11111222,99999999' 
TABS,ioos:station:wmo:42047:1,2005-04-01T11:00:00Z,27.8966,-93.5973,2.0,68.55910603,16.8243306,-99999.0,'11111222,11111222,99999999' 
TABS,ioos:station:wmo:42047:1,2005-04-01T11:30:00Z,27.8966,-93.5973,2.0,90.02870523,19.96000251,-99999.0,'11111222,11111222,99999999' 
TABS,ioos:station:wmo:42047:1,2005-04-01T12:00:00Z,27.8966,-93.5973,2.0,94.71559253,20.80040865,-99999.0,'11111222,11111222,99999999' 
TABS,ioos:station:wmo:42047:1,2005-04-01T12:30:00Z,27.8966,-93.5973,2.0,110.6998062,27.04595349,-99999.0,'11111222,11111222,99999999' 
TABS,ioos:station:wmo:42047:1,2005-04-01T13:00:00Z,27.8966,-93.5973,2.0,120.2769541,26.04221573,-99999.0,'11111222,11111222,99999999' 
TABS,ioos:station:wmo:42047:1,2005-04-01T13:30:00Z,27.8966,-93.5973,2.0,122.8909381,27.84311046,-99999.0,'11111222,11111222,99999999' 
TABS,ioos:station:wmo:42047:1,2005-04-01T14:00:00Z,27.8966,-93.5973,2.0,126.1973381,26.75384271,-99999.0,'11111222,11111222,99999999' 
TABS,ioos:station:wmo:42047:1,2005-04-01T14:30:00Z,27.8966,-93.5973,2.0,127.5649126,29.18014736,-99999.0,'11111222,11111222,99999999' 
TABS,ioos:station:wmo:42047:1,2005-04-01T15:00:00Z,27.8966,-93.5973,2.0,134.0521511,29.49745921,-99999.0,'11111222,11111222,99999999' 
TABS,ioos:station:wmo:42047:1,2005-04-01T15:30:00Z,27.8966,-93.5973,2.0,140.7060973,36.83896035,-99999.0,'11111222,11111222,99999999' 
TABS,ioos:station:wmo:42047:1,2005-04-01T16:30:00Z,27.8966,-93.5973,2.0,138.4059661,39.63263428,-99999.0,'11111222,11111222,99999999' 
TABS,ioos:station:wmo:42047:1,2005-04-01T17:00:00Z,27.8966,-93.5973,2.0,141.8452726,36.84126084,-99999.0,'11111222,11111222,99999999' 
TABS,ioos:station:wmo:42047:1,2005-04-01T17:30:00Z,27.8966,-93.5973,2.0,140.599221,41.67064314,-99999.0,'11111222,11111222,99999999' 
TABS,ioos:station:wmo:42047:1,2005-04-01T18:00:00Z,27.8966,-93.5973,2.0,142.3772439,42.01762606,-99999.0,'11111222,11111222,99999999' 
TABS,ioos:station:wmo:42047:1,2005-04-01T18:30:00Z,27.8966,-93.5973,2.0,141.4267444,36.13396463,-99999.0,'11111222,11111222,99999999' 
TABS,ioos:station:wmo:42047:1,2005-04-01T19:00:00Z,27.8966,-93.5973,2.0,140.6330494,41.13305362,-99999.0,'11111222,11111222,99999999' 
TABS,ioos:station:wmo:42047:1,2005-04-01T19:30:00Z,27.8966,-93.5973,2.0,146.8663498,41.40200237,-99999.0,'11111222,11111222,99999999' 
TABS,ioos:station:wmo:42047:1,2005-04-01T20:30:00Z,27.8966,-93.5973,2.0,146.0486556,39.55330833,-99999.0,'11111222,11111222,99999999' 
TABS,ioos:station:wmo:42047:1,2005-04-01T21:00:00Z,27.8966,-93.5973,2.0,153.2632374,38.83173058,-99999.0,'11111222,11111222,99999999' 
TABS,ioos:station:wmo:42047:1,2005-04-01T21:30:00Z,27.8966,-93.5973,2.0,155.6171683,43.33512432,-99999.0,'11111222,11111222,99999999' 
TABS,ioos:station:wmo:42047:1,2005-04-01T22:30:00Z,27.8966,-93.5973,2.0,163.628126,39.8768755,-99999.0,'11111222,11111222,99999999' 
TABS,ioos:station:wmo:42047:1,2005-04-01T23:00:00Z,27.8966,-93.5973,2.0,158.7411972,36.46105868,-99999.0,'11111222,11111222,99999999' 
TABS,ioos:station:wmo:42047:1,2005-04-01T23:30:00Z,27.8966,-93.5973,2.0,157.0070776,39.47622069,-99999.0,'11111222,11111222,99999999' 
TABS,ioos:station:wmo:42047:1,2005-04-02T00:00:00Z,27.8966,-93.5973,2.0,163.0528608,41.64859181,-99999.0,'11111222,11111222,99999999' 
TABS,ioos:station:wmo:42047:1,2005-04-02T00:30:00Z,27.8966,-93.5973,2.0,163.234992,37.65026029,-99999.0,'11111222,11111222,99999999' 
TABS,ioos:station:wmo:42047:1,2005-04-02T01:00:00Z,27.8966,-93.5973,2.0,168.894457,37.8996847,-99999.0,'11111222,11111222,99999999' 
TABS,ioos:station:wmo:42047:1,2005-04-02T01:30:00Z,27.8966,-93.5973,2.0,165.1430382,37.08992586,-99999.0,'11111222,11111222,99999999' 
TABS,ioos:station:wmo:42047:1,2005-04-02T02:00:00Z,27.8966,-93.5973,2.0,162.8119044,35.59986657,-99999.0,'11111222,11111222,99999999' 
TABS,ioos:station:wmo:42047:1,2005-04-02T02:30:00Z,27.8966,-93.5973,2.0,158.2337834,30.09564919,-99999.0,'11111222,11111222,99999999' 
TABS,ioos:station:wmo:42047:1,2005-04-02T03:00:00Z,27.8966,-93.5973,2.0,160.9518674,38.42387279,-99999.0,'11111222,11111222,99999999' 
TABS,ioos:station:wmo:42047:1,2005-04-02T03:30:00Z,27.8966,-93.5973,2.0,173.084242,27.82241722,-99999.0,'11111222,11111222,99999999' 
TABS,ioos:station:wmo:42047:1,2005-04-02T04:00:00Z,27.8966,-93.5973,2.0,171.6350082,30.72687586,-99999.0,'11111222,11111222,99999999' 
TABS,ioos:station:wmo:42047:1,2005-04-02T04:30:00Z,27.8966,-93.5973,2.0,169.6833008,26.35608658,-99999.0,'11111222,11111222,99999999' 
TABS,ioos:station:wmo:42047:1,2005-04-02T05:00:00Z,27.8966,-93.5973,2.0,165.9223029,30.2999835,-99999.0,'11111222,11111222,99999999' 
TABS,ioos:station:wmo:42047:1,2005-04-02T05:30:00Z,27.8966,-93.5973,2.0,172.364813,28.14955772,-99999.0,'11111222,11111222,99999999' 
TABS,ioos:station:wmo:42047:1,2005-04-02T06:00:00Z,27.8966,-93.5973,2.0,163.4427569,29.72239896,-99999.0,'11111222,11111222,99999999' 
TABS,ioos:station:wmo:42047:1,2005-04-02T06:30:00Z,27.8966,-93.5973,2.0,177.4704945,23.7931797,-99999.0,'11111222,11111222,99999999' 
TABS,ioos:station:wmo:42047:1,2005-04-02T07:00:00Z,27.8966,-93.5973,2.0,163.3489017,24.98778101,-99999.0,'11111222,11111222,99999999' 
TABS,ioos:station:wmo:42047:1,2005-04-02T07:30:00Z,27.8966,-93.5973,2.0,173.2856362,23.17896676,-99999.0,'11111222,11111222,99999999' 
TABS,ioos:station:wmo:42047:1,2005-04-02T08:00:00Z,27.8966,-93.5973,2.0,165.3034532,19.15673511,-99999.0,'11111222,11111222,99999999' 
TABS,ioos:station:wmo:42047:1,2005-04-02T08:30:00Z,27.8966,-93.5973,2.0,181.3017392,17.16443125,-99999.0,'11111222,11111222,99999999' 
TABS,ioos:station:wmo:42047:1,2005-04-02T09:00:00Z,27.8966,-93.5973,2.0,181.441317,16.69528377,-99999.0,'11111222,11111222,99999999' 
TABS,ioos:station:wmo:42047:1,2005-04-02T09:30:00Z,27.8966,-93.5973,2.0,206.8384818,14.04266713,-99999.0,'11111222,11111222,99999999' 
TABS,ioos:station:wmo:42047:1,2005-04-02T10:00:00Z,27.8966,-93.5973,2.0,196.1989759,12.40240702,-99999.0,'11111222,11111222,99999999' 
TABS,ioos:station:wmo:42047:1,2005-04-02T10:30:00Z,27.8966,-93.5973,2.0,180.5972199,9.590521362,-99999.0,'11133222,11111222,99999999' 
TABS,ioos:station:wmo:42047:1,2005-04-02T11:00:00Z,27.8966,-93.5973,2.0,236.5410198,9.61303282,-99999.0,'11133222,11111222,99999999' 
TABS,ioos:station:wmo:42047:1,2005-04-02T11:30:00Z,27.8966,-93.5973,2.0,220.8643778,7.550344363,-99999.0,'11133222,11111222,99999999' 
TABS,ioos:station:wmo:42047:1,2005-04-02T12:00:00Z,27.8966,-93.5973,2.0,216.7729811,4.744006745,-99999.0,'11133222,11111222,99999999' 
TABS,ioos:station:wmo:42047:1,2005-04-02T12:30:00Z,27.8966,-93.5973,2.0,270.3983009,8.640208331,-99999.0,'11133222,11111222,99999999' 
TABS,ioos:station:wmo:42047:1,2005-04-02T13:00:00Z,27.8966,-93.5973,2.0,246.8862337,7.947987167,-99999.0,'11133222,11111222,99999999' 
TABS,ioos:station:wmo:42047:1,2005-04-02T13:30:00Z,27.8966,-93.5973,2.0,222.5924949,5.555690776,-99999.0,'11133222,11111222,99999999' 
TABS,ioos:station:wmo:42047:1,2005-04-02T14:00:00Z,27.8966,-93.5973,2.0,274.4096735,4.162319065,-99999.0,'11133222,11111222,99999999' 
TABS,ioos:station:wmo:42047:1,2005-04-02T14:30:00Z,27.8966,-93.5973,2.0,280.9624825,4.522521421,-99999.0,'11133222,11111222,99999999' 
TABS,ioos:station:wmo:42047:1,2005-04-02T15:00:00Z,27.8966,-93.5973,2.0,289.3015015,7.321509407,-99999.0,'11133222,11111222,99999999' 
TABS,ioos:station:wmo:42047:1,2005-04-02T15:30:00Z,27.8966,-93.5973,2.0,314.473474,6.152089076,-99999.0,'11133222,11111222,99999999' 
TABS,ioos:station:wmo:42047:1,2005-04-02T16:30:00Z,27.8966,-93.5973,2.0,348.1426027,10.46327387,-99999.0,'11111222,11111222,99999999' 
TABS,ioos:station:wmo:42047:1,2005-04-02T17:00:00Z,27.8966,-93.5973,2.0,7.623814728,7.83929206,-99999.0,'11133222,11111222,99999999' 
TABS,ioos:station:wmo:42047:1,2005-04-02T17:30:00Z,27.8966,-93.5973,2.0,1.113438652,6.69126296,-99999.0,'11133222,11111222,99999999' 
TABS,ioos:station:wmo:42047:1,2005-04-02T18:00:00Z,27.8966,-93.5973,2.0,26.6697535,4.901469168,-99999.0,'11133222,11111222,99999999' 
TABS,ioos:station:wmo:42047:1,2005-04-02T18:30:00Z,27.8966,-93.5973,2.0,24.99891199,5.726473609,-99999.0,'11133222,11111222,99999999' 
TABS,ioos:station:wmo:42047:1,2005-04-02T19:00:00Z,27.8966,-93.5973,2.0,40.42310479,5.228049349,-99999.0,'11133222,11111222,99999999' 
TABS,ioos:station:wmo:42047:1,2005-04-02T19:30:00Z,27.8966,-93.5973,2.0,29.07175334,3.272262214,-99999.0,'11133222,11111222,99999999' 
TABS,ioos:station:wmo:42047:1,2005-04-02T20:30:00Z,27.8966,-93.5973,2.0,77.01216299,6.362774552,-99999.0,'11133222,11111222,99999999' 
TABS,ioos:station:wmo:42047:1,2005-04-02T21:00:00Z,27.8966,-93.5973,2.0,88.25637878,6.573043435,-99999.0,'11133222,11111222,99999999' 
TABS,ioos:station:wmo:42047:1,2005-04-02T21:30:00Z,27.8966,-93.5973,2.0,87.43240867,8.928964106,-99999.0,'11133222,11111222,99999999' 
TABS,ioos:station:wmo:42047:1,2005-04-02T22:30:00Z,27.8966,-93.5973,2.0,139.6434088,16.24607029,-99999.0,'11111222,11111222,99999999' 
TABS,ioos:station:wmo:42047:1,2005-04-02T23:00:00Z,27.8966,-93.5973,2.0,137.6481107,19.74229217,-99999.0,'11111222,11111222,99999999' 
TABS,ioos:station:wmo:42047:1,2005-04-02T23:30:00Z,27.8966,-93.5973,2.0,133.8709615,19.73918185,-99999.0,'11111222,11111222,99999999' 
TABS,ioos:station:wmo:42047:1,2005-04-03T00:00:00Z,27.8966,-93.5973,2.0,126.0643018,17.07168709,-99999.0,'11111222,11111222,99999999' 
TABS,ioos:station:wmo:42047:1,2005-04-03T00:30:00Z,27.8966,-93.5973,2.0,123.7429503,18.00280256,-99999.0,'11111222,11111222,99999999' 
TABS,ioos:station:wmo:42047:1,2005-04-03T01:00:00Z,27.8966,-93.5973,2.0,120.7337768,16.24104676,-99999.0,'11111222,11111222,99999999' 
TABS,ioos:station:wmo:42047:1,2005-04-03T01:30:00Z,27.8966,-93.5973,2.0,121.1288336,17.25454433,-99999.0,'11111222,11111222,99999999' 
TABS,ioos:station:wmo:42047:1,2005-04-03T02:00:00Z,27.8966,-93.5973,2.0,123.1288087,17.84001401,-99999.0,'11111222,11111222,99999999' 
TABS,ioos:station:wmo:42047:1,2005-04-03T02:30:00Z,27.8966,-93.5973,2.0,133.9690967,17.687603,-99999.0,'11111222,11111222,99999999' 
TABS,ioos:station:wmo:42047:1,2005-04-03T03:00:00Z,27.8966,-93.5973,2.0,128.3121387,19.30811746,-99999.0,'11111222,11111222,99999999' 
TABS,ioos:station:wmo:42047:1,2005-04-03T03:30:00Z,27.8966,-93.5973,2.0,130.6949319,17.2384019,-99999.0,'11111222,11111222,99999999' 
TABS,ioos:station:wmo:42047:1,2005-04-03T04:00:00Z,27.8966,-93.5973,2.0,134.3625702,18.43541429,-99999.0,'11111222,11111222,99999999' 
TABS,ioos:station:wmo:42047:1,2005-04-03T04:30:00Z,27.8966,-93.5973,2.0,143.0141125,17.8020364,-99999.0,'11111222,11111222,99999999' 
TABS,ioos:station:wmo:42047:1,2005-04-03T05:00:00Z,27.8966,-93.5973,2.0,141.8788705,17.77023635,-99999.0,'11111222,11111222,99999999' 
TABS,ioos:station:wmo:42047:1,2005-04-03T05:30:00Z,27.8966,-93.5973,2.0,147.745434,16.82656531,-99999.0,'11111222,11111222,99999999' 
TABS,ioos:station:wmo:42047:1,2005-04-03T06:00:00Z,27.8966,-93.5973,2.0,155.4893686,14.9689178,-99999.0,'11111222,11111222,99999999' 
TABS,ioos:station:wmo:42047:1,2005-04-03T06:30:00Z,27.8966,-93.5973,2.0,153.6664305,15.48713337,-99999.0,'11111222,11111222,99999999' 
TABS,ioos:station:wmo:42047:1,2005-04-03T07:00:00Z,27.8966,-93.5973,2.0,150.8322444,14.7732867,-99999.0,'11111222,11111222,99999999' 
TABS,ioos:station:wmo:42047:1,2005-04-03T07:30:00Z,27.8966,-93.5973,2.0,153.2724903,12.62936261,-99999.0,'11111222,11111222,99999999' 
TABS,ioos:station:wmo:42047:1,2005-04-03T08:00:00Z,27.8966,-93.5973,2.0,154.363624,12.96642588,-99999.0,'11111222,11111222,99999999' 
TABS,ioos:station:wmo:42047:1,2005-04-03T08:30:00Z,27.8966,-93.5973,2.0,161.6140084,11.0648136,-99999.0,'11111222,11111222,99999999' 
TABS,ioos:station:wmo:42047:1,2005-04-03T09:00:00Z,27.8966,-93.5973,2.0,164.9407711,11.27727804,-99999.0,'11111222,11111222,99999999' 
TABS,ioos:station:wmo:42047:1,2005-04-03T09:30:00Z,27.8966,-93.5973,2.0,164.9369508,7.580455131,-99999.0,'11133222,11111222,99999999' 
TABS,ioos:station:wmo:42047:1,2005-04-03T10:00:00Z,27.8966,-93.5973,2.0,176.6293807,8.50471046,-99999.0,'11133222,11111222,99999999' 
TABS,ioos:station:wmo:42047:1,2005-04-03T10:30:00Z,27.8966,-93.5973,2.0,195.2444684,4.829958592,-99999.0,'11133222,11111222,99999999' 
TABS,ioos:station:wmo:42047:1,2005-04-03T11:00:00Z,27.8966,-93.5973,2.0,208.1504123,3.878827142,-99999.0,'11133222,11111222,99999999' 
TABS,ioos:station:wmo:42047:1,2005-04-03T11:30:00Z,27.8966,-93.5973,2.0,231.6009724,4.797707786,-99999.0,'11133222,11111222,99999999' 
TABS,ioos:station:wmo:42047:1,2005-04-03T12:00:00Z,27.8966,-93.5973,2.0,219.2253719,1.897603752,-99999.0,'11133222,11111222,99999999' 
TABS,ioos:station:wmo:42047:1,2005-04-03T12:30:00Z,27.8966,-93.5973,2.0,256.0015655,3.638035184,-99999.0,'11133222,11111222,99999999' 
TABS,ioos:station:wmo:42047:1,2005-04-03T13:00:00Z,27.8966,-93.5973,2.0,270.211843,2.71001845,-99999.0,'11133222,11111222,99999999' 
TABS,ioos:station:wmo:42047:1,2005-04-03T13:30:00Z,27.8966,-93.5973,2.0,310.1210533,1.163872845,-99999.0,'11133222,11111222,99999999' 
TABS,ioos:station:wmo:42047:1,2005-04-03T14:00:00Z,27.8966,-93.5973,2.0,345.4113258,0.754320887,-99999.0,'11133222,11111222,99999999' 
TABS,ioos:station:wmo:42047:1,2005-04-03T14:30:00Z,27.8966,-93.5973,2.0,290.3048471,2.132510258,-99999.0,'11133222,11111222,99999999' 
TABS,ioos:station:wmo:42047:1,2005-04-03T15:00:00Z,27.8966,-93.5973,2.0,310.0579981,3.200952983,-99999.0,'11133222,11111222,99999999' 
TABS,ioos:station:wmo:42047:1,2005-04-03T15:30:00Z,27.8966,-93.5973,2.0,354.8057937,0.773175271,-99999.0,'11133222,11111222,99999999' 
TABS,ioos:station:wmo:42047:1,2005-04-03T16:00:00Z,27.8966,-93.5973,2.0,316.1960663,3.727264412,-99999.0,'11133222,11111222,99999999' 
TABS,ioos:station:wmo:42047:1,2005-04-03T16:30:00Z,27.8966,-93.5973,2.0,280.1573627,3.118878003,-99999.0,'11133222,11111222,99999999' 
TABS,ioos:station:wmo:42047:1,2005-04-03T17:00:00Z,27.8966,-93.5973,2.0,311.0254364,2.346167087,-99999.0,'11133222,11111222,99999999' 
TABS,ioos:station:wmo:42047:1,2005-04-03T17:30:00Z,27.8966,-93.5973,2.0,3.635283999,4.258567834,-99999.0,'11133222,11111222,99999999' 
TABS,ioos:station:wmo:42047:1,2005-04-03T18:00:00Z,27.8966,-93.5973,2.0,353.9912186,1.719447586,-99999.0,'11133222,11111222,99999999' 
TABS,ioos:station:wmo:42047:1,2005-04-03T18:30:00Z,27.8966,-93.5973,2.0,23.25274826,4.179485614,-99999.0,'11133222,11111222,99999999' 
TABS,ioos:station:wmo:42047:1,2005-04-03T19:00:00Z,27.8966,-93.5973,2.0,68.45907445,4.085339643,-99999.0,'11133222,11111222,99999999' 
TABS,ioos:station:wmo:42047:1,2005-04-03T19:30:00Z,27.8966,-93.5973,2.0,55.39158593,5.017907931,-99999.0,'11133222,11111222,99999999' 
TABS,ioos:station:wmo:42047:1,2005-04-03T20:00:00Z,27.8966,-93.5973,2.0,84.44347491,4.440867032,-99999.0,'11133222,11111222,99999999' 
TABS,ioos:station:wmo:42047:1,2005-04-03T20:30:00Z,27.8966,-93.5973,2.0,82.27340045,2.008233054,-99999.0,'11133222,11111222,99999999' 
TABS,ioos:station:wmo:42047:1,2005-04-03T21:00:00Z,27.8966,-93.5973,2.0,70.79319367,8.450372773,-99999.0,'11133222,11111222,99999999' 
TABS,ioos:station:wmo:42047:1,2005-04-03T21:30:00Z,27.8966,-93.5973,2.0,49.23181468,16.00302784,-99999.0,'11111222,11111222,99999999' 
TABS,ioos:station:wmo:42047:1,2005-04-03T22:00:00Z,27.8966,-93.5973,2.0,54.08939728,16.60632711,-99999.0,'11111222,11111222,99999999' 
TABS,ioos:station:wmo:42047:1,2005-04-03T22:30:00Z,27.8966,-93.5973,2.0,62.47239465,17.56902957,-99999.0,'11111222,11111222,99999999' 
TABS,ioos:station:wmo:42047:1,2005-04-03T23:00:00Z,27.8966,-93.5973,2.0,70.94291313,17.18166756,-99999.0,'11111222,11111222,99999999' 
TABS,ioos:station:wmo:42047:1,2005-04-03T23:30:00Z,27.8966,-93.5973,2.0,65.96540255,19.34743652,-99999.0,'11111222,11111222,99999999' 
TABS,ioos:station:wmo:42047:1,2005-04-04T00:00:00Z,27.8966,-93.5973,2.0,70.69223647,18.26743551,-99999.0,'11111222,11111222,99999999' 
TABS,ioos:station:wmo:42047:1,2005-04-04T00:30:00Z,27.8966,-93.5973,2.0,75.56865324,17.93593599,-99999.0,'11111222,11111222,99999999' 
TABS,ioos:station:wmo:42047:1,2005-04-04T01:00:00Z,27.8966,-93.5973,2.0,75.81225211,19.25739598,-99999.0,'11111222,11111222,99999999' 
TABS,ioos:station:wmo:42047:1,2005-04-04T01:30:00Z,27.8966,-93.5973,2.0,75.40057263,18.01156573,-99999.0,'11111222,11111222,99999999' 
TABS,ioos:station:wmo:42047:1,2005-04-04T04:00:00Z,27.8966,-93.5973,2.0,87.38123425,14.44508567,-99999.0,'11111222,11111222,99999999' 
TABS,ioos:station:wmo:42047:1,2005-04-04T04:30:00Z,27.8966,-93.5973,2.0,87.16481771,15.76930246,-99999.0,'11111222,11111222,99999999' 
TABS,ioos:station:wmo:42047:1,2005-04-04T05:00:00Z,27.8966,-93.5973,2.0,84.26105744,20.10074874,-99999.0,'11111222,11111222,99999999' 
TABS,ioos:station:wmo:42047:1,2005-04-04T05:30:00Z,27.8966,-93.5973,2.0,93.684668,16.49409591,-99999.0,'11111222,11111222,99999999' 
TABS,ioos:station:wmo:42047:1,2005-04-04T06:00:00Z,27.8966,-93.5973,2.0,106.2817507,13.80360098,-99999.0,'11111222,11111222,99999999' 
TABS,ioos:station:wmo:42047:1,2005-04-04T06:30:00Z,27.8966,-93.5973,2.0,109.9346199,11.11605146,-99999.0,'11111222,11111222,99999999' 
TABS,ioos:station:wmo:42047:1,2005-04-04T07:00:00Z,27.8966,-93.5973,2.0,119.9055177,9.286517108,-99999.0,'11133222,11111222,99999999' 
TABS,ioos:station:wmo:42047:1,2005-04-04T07:30:00Z,27.8966,-93.5973,2.0,109.6771914,11.52288592,-99999.0,'11111222,11111222,99999999' 
TABS,ioos:station:wmo:42047:1,2005-04-04T08:00:00Z,27.8966,-93.5973,2.0,104.3965559,13.1117352,-99999.0,'11111222,11111222,99999999' 
TABS,ioos:station:wmo:42047:1,2005-04-04T08:30:00Z,27.8966,-93.5973,2.0,94.94406285,11.60317198,-99999.0,'11111222,11111222,99999999' 
TABS,ioos:station:wmo:42047:1,2005-04-04T09:00:00Z,27.8966,-93.5973,2.0,123.624806,4.87581788,-99999.0,'11133222,11111222,99999999' 
TABS,ioos:station:wmo:42047:1,2005-04-04T09:30:00Z,27.8966,-93.5973,2.0,106.1487035,6.579612451,-99999.0,'11133222,11111222,99999999' 
TABS,ioos:station:wmo:42047:1,2005-04-04T10:00:00Z,27.8966,-93.5973,2.0,113.1769234,3.480933783,-99999.0,'11133222,11111222,99999999' 
TABS,ioos:station:wmo:42047:1,2005-04-04T10:30:00Z,27.8966,-93.5973,2.0,55.31823051,5.4479721,-99999.0,'11133222,11111222,99999999' 
TABS,ioos:station:wmo:42047:1,2005-04-04T11:00:00Z,27.8966,-93.5973,2.0,47.91574919,5.699587704,-99999.0,'11133222,11111222,99999999' 
TABS,ioos:station:wmo:42047:1,2005-04-04T11:30:00Z,27.8966,-93.5973,2.0,22.24110811,8.956349703,-99999.0,'11133222,11111222,99999999' 
TABS,ioos:station:wmo:42047:1,2005-04-04T12:00:00Z,27.8966,-93.5973,2.0,26.83674083,9.436312839,-99999.0,'11133222,11111222,99999999' 
TABS,ioos:station:wmo:42047:1,2005-04-04T12:30:00Z,27.8966,-93.5973,2.0,37.645273,10.4949607,-99999.0,'11111222,11111222,99999999' 
TABS,ioos:station:wmo:42047:1,2005-04-04T13:00:00Z,27.8966,-93.5973,2.0,19.39105377,10.99360723,-99999.0,'11111222,11111222,99999999' 
TABS,ioos:station:wmo:42047:1,2005-04-04T13:30:00Z,27.8966,-93.5973,2.0,23.8015232,10.10984174,-99999.0,'11111222,11111222,99999999' 
TABS,ioos:station:wmo:42047:1,2005-04-04T14:30:00Z,27.8966,-93.5973,2.0,19.09365781,12.65627117,-99999.0,'11111222,11111222,99999999' 
TABS,ioos:station:wmo:42047:1,2005-04-04T15:00:00Z,27.8966,-93.5973,2.0,21.24089553,12.14505661,-99999.0,'11111222,11111222,99999999' 
TABS,ioos:station:wmo:42047:1,2005-04-04T15:30:00Z,27.8966,-93.5973,2.0,14.06432936,9.958513945,-99999.0,'11133222,11111222,99999999' 
TABS,ioos:station:wmo:42047:1,2005-04-04T16:00:00Z,27.8966,-93.5973,2.0,27.64048683,12.86860132,-99999.0,'11111222,11111222,99999999' 
TABS,ioos:station:wmo:42047:1,2005-04-04T16:30:00Z,27.8966,-93.5973,2.0,25.3890768,17.21240541,-99999.0,'11111222,11111222,99999999' 
TABS,ioos:station:wmo:42047:1,2005-04-04T17:00:00Z,27.8966,-93.5973,2.0,29.05474662,15.54640151,-99999.0,'11111222,11111222,99999999' 
TABS,ioos:station:wmo:42047:1,2005-04-04T17:30:00Z,27.8966,-93.5973,2.0,25.12166884,14.55695023,-99999.0,'11111222,11111222,99999999' 
TABS,ioos:station:wmo:42047:1,2005-04-04T18:00:00Z,27.8966,-93.5973,2.0,28.0706518,17.02235295,-99999.0,'11111222,11111222,99999999' 
TABS,ioos:station:wmo:42047:1,2005-04-04T18:30:00Z,27.8966,-93.5973,2.0,29.23779917,16.1127434,-99999.0,'11111222,11111222,99999999' 
TABS,ioos:station:wmo:42047:1,2005-04-04T19:00:00Z,27.8966,-93.5973,2.0,40.32675414,19.00658044,-99999.0,'11111222,11111222,99999999' 
TABS,ioos:station:wmo:42047:1,2005-04-04T19:30:00Z,27.8966,-93.5973,2.0,48.64811256,20.4485354,-99999.0,'11111222,11111222,99999999' 
TABS,ioos:station:wmo:42047:1,2005-04-04T20:00:00Z,27.8966,-93.5973,2.0,55.8027561,24.74891917,-99999.0,'11111222,11111222,99999999' 
TABS,ioos:station:wmo:42047:1,2005-04-04T20:30:00Z,27.8966,-93.5973,2.0,61.44190336,21.85960887,-99999.0,'11111222,11111222,99999999' 
TABS,ioos:station:wmo:42047:1,2005-04-04T21:00:00Z,27.8966,-93.5973,2.0,59.93922283,20.24277649,-99999.0,'11111222,11111222,99999999' 
TABS,ioos:station:wmo:42047:1,2005-04-04T21:30:00Z,27.8966,-93.5973,2.0,62.83847304,19.75896758,-99999.0,'11111222,11111222,99999999' 